CRL637 LFML-LFLL

Flight info

Callsign CRL637
Flight time 0h 32m
Altitude 17000
Route MTL
Aircraft A339/H-SADE1E2E3GHIJ3J5M1P2RWXY/LB2D1

Departure

Time 2026-05-04 06:41
Airport Marseille Provence Airport (LFML)

Arrival

Time 2026-05-04 07:13
Airport Lyon Saint-Exupéry Airport (LFLL)
Time Latitude Longitude Altitude Speed Heading
2026-05-04 06:07 43.44106 5.22039 43 ft 0 kts 25°
2026-05-04 06:30 43.44103 5.22038 43 ft 3 kts 25°
2026-05-04 06:30 43.44085 5.22025 42 ft 3 kts 30°
2026-05-04 06:30 43.44064 5.22005 40 ft 4 kts 40°
2026-05-04 06:31 43.44049 5.21985 40 ft 4 kts 14°
2026-05-04 06:31 43.44031 5.21980 40 ft 4 kts 324°
2026-05-04 06:31 43.44015 5.21997 38 ft 0 kts 317°
2026-05-04 06:33 43.44016 5.21997 38 ft 0 kts 317°
2026-05-04 06:34 43.44015 5.21998 38 ft 0 kts 317°
2026-05-04 06:34 43.44042 5.21962 39 ft 18 kts 316°
2026-05-04 06:35 43.44109 5.21861 40 ft 1 kts 307°
2026-05-04 06:36 43.44246 5.21023 26 ft 30 kts 310°
2026-05-04 06:37 43.44320 5.20856 28 ft 12 kts 299°
2026-05-04 06:37 43.44386 5.20748 27 ft 20 kts 311°
2026-05-04 06:37 43.44503 5.20586 28 ft 26 kts 315°
2026-05-04 06:37 43.44619 5.20421 25 ft 20 kts 313°
2026-05-04 06:38 43.44669 5.20342 26 ft 2 kts 301°
2026-05-04 06:38 43.44662 5.20275 27 ft 14 kts 242°
2026-05-04 06:40 43.44560 5.20234 30 ft 0 kts 135°
2026-05-04 06:40 43.44465 5.20374 31 ft 62 kts 132°
2026-05-04 06:40 43.43950 5.21109 37 ft 146 kts 133°
2026-05-04 06:40 43.43167 5.22215 623 ft 167 kts 132°
2026-05-04 06:41 43.42438 5.23415 1634 ft 164 kts 119°
2026-05-04 06:41 43.42103 5.24965 2403 ft 182 kts 105°
2026-05-04 06:41 43.42074 5.26797 3067 ft 205 kts 91°
2026-05-04 06:41 43.42638 5.28717 3803 ft 233 kts 60°
2026-05-04 06:42 43.43921 5.30205 4467 ft 253 kts 29°
2026-05-04 06:42 43.45650 5.30780 5120 ft 265 kts 358°
2026-05-04 06:42 43.47493 5.30268 5602 ft 278 kts 335°
2026-05-04 06:44 43.61038 5.23058 10450 ft 318 kts 338°
2026-05-04 06:44 43.63229 5.22028 10666 ft 339 kts 338°
2026-05-04 06:44 43.65526 5.20948 10937 ft 356 kts 338°
2026-05-04 06:45 43.67883 5.19845 11635 ft 358 kts 338°
2026-05-04 06:45 43.70194 5.18761 12316 ft 361 kts 338°
2026-05-04 06:45 43.72623 5.17620 12988 ft 365 kts 338°
2026-05-04 06:45 43.75048 5.16480 13642 ft 369 kts 338°
2026-05-04 06:46 43.77484 5.15335 14279 ft 372 kts 338°
2026-05-04 06:46 43.79950 5.14173 14884 ft 376 kts 338°
2026-05-04 06:46 43.82438 5.12998 15515 ft 378 kts 338°
2026-05-04 06:46 43.84935 5.11816 16173 ft 380 kts 338°
2026-05-04 06:48 44.03117 5.03185 17045 ft 402 kts 338°
2026-05-04 06:48 44.05765 5.01923 17070 ft 402 kts 338°
2026-05-04 06:49 44.08408 5.00660 17070 ft 400 kts 338°
2026-05-04 06:50 44.26926 4.91787 17069 ft 402 kts 338°
2026-05-04 06:51 44.29573 4.90514 17064 ft 402 kts 338°
2026-05-04 06:51 44.32221 4.89239 17052 ft 402 kts 338°
2026-05-04 06:51 44.34860 4.87967 17048 ft 402 kts 338°
2026-05-04 06:51 44.36619 4.87120 17053 ft 402 kts 338°
2026-05-04 06:52 44.39258 4.85847 17051 ft 402 kts 338°
2026-05-04 06:52 44.41902 4.84571 17059 ft 402 kts 338°
2026-05-04 06:52 44.45409 4.82873 17054 ft 402 kts 338°
2026-05-04 06:52 44.47198 4.82007 17057 ft 402 kts 339°
2026-05-04 06:53 44.49842 4.80726 17056 ft 404 kts 338°
2026-05-04 06:53 44.52497 4.79444 17055 ft 402 kts 339°
2026-05-04 06:53 44.55233 4.78519 17066 ft 405 kts 349°
2026-05-04 06:53 44.58044 4.78319 17052 ft 407 kts
2026-05-04 06:54 44.60848 4.78583 17059 ft 408 kts
2026-05-04 06:54 44.63678 4.78844 17048 ft 408 kts
2026-05-04 06:54 44.66513 4.79113 17051 ft 407 kts
2026-05-04 06:54 44.69340 4.79392 17051 ft 408 kts
2026-05-04 06:55 44.72183 4.79680 17049 ft 408 kts
2026-05-04 06:55 44.75007 4.79969 17053 ft 407 kts
2026-05-04 06:55 44.77836 4.80260 17044 ft 407 kts
2026-05-04 06:55 44.80665 4.80551 17047 ft 408 kts
2026-05-04 06:56 44.83493 4.80842 17053 ft 407 kts
2026-05-04 06:57 45.03247 4.82884 17049 ft 407 kts
2026-05-04 06:58 45.06070 4.83176 17038 ft 407 kts
2026-05-04 06:58 45.08894 4.83467 17038 ft 407 kts
2026-05-04 06:58 45.11717 4.83759 17038 ft 406 kts
2026-05-04 06:58 45.14479 4.84046 17034 ft 406 kts
2026-05-04 06:59 45.17349 4.84478 17032 ft 407 kts
2026-05-04 06:59 45.20096 4.85451 17035 ft 408 kts 17°
2026-05-04 06:59 45.22808 4.86651 16962 ft 408 kts 16°
2026-05-04 06:59 45.25524 4.87827 16608 ft 407 kts 16°
2026-05-04 07:01 45.44174 4.94539 12609 ft 383 kts 13°
2026-05-04 07:01 45.46761 4.95445 12024 ft 381 kts 13°
2026-05-04 07:02 45.49290 4.96333 11456 ft 375 kts 12°
2026-05-04 07:02 45.51799 4.97214 10897 ft 373 kts 12°
2026-05-04 07:02 45.54328 4.97958 10335 ft 369 kts
2026-05-04 07:02 45.56857 4.98097 9782 ft 364 kts 354°
2026-05-04 07:03 45.59313 4.97749 9168 ft 346 kts 351°
2026-05-04 07:03 45.61652 4.97390 8573 ft 329 kts 351°
2026-05-04 07:03 45.63864 4.97070 8142 ft 309 kts 351°
2026-05-04 07:03 45.65947 4.96776 7716 ft 292 kts 351°
2026-05-04 07:04 45.67904 4.96499 7294 ft 276 kts 351°
2026-05-04 07:04 45.69787 4.96231 6870 ft 266 kts 351°
2026-05-04 07:04 45.71647 4.95961 6464 ft 271 kts 351°
2026-05-04 07:04 45.73512 4.95690 6024 ft 268 kts 352°
2026-05-04 07:05 45.75366 4.95420 5598 ft 268 kts 352°
2026-05-04 07:05 45.77236 4.95148 5201 ft 271 kts 353°
2026-05-04 07:05 45.79084 4.94887 5049 ft 267 kts 353°
2026-05-04 07:05 45.80950 4.94622 5022 ft 269 kts 353°
2026-05-04 07:06 45.84685 4.94087 5023 ft 271 kts 353°
2026-05-04 07:06 45.86565 4.94134 5020 ft 271 kts 11°
2026-05-04 07:06 45.88360 4.94951 4967 ft 271 kts 22°
2026-05-04 07:07 45.90117 4.95905 4661 ft 269 kts 22°
2026-05-04 07:08 45.89740 5.07157 3507 ft 194 kts 175°
2026-05-04 07:09 45.88454 5.07346 3489 ft 178 kts 178°
2026-05-04 07:09 45.87308 5.07493 3462 ft 156 kts 178°
2026-05-04 07:09 45.86302 5.07619 3368 ft 134 kts 178°
2026-05-04 07:09 45.85417 5.07727 3181 ft 128 kts 178°
2026-05-04 07:10 45.84507 5.07838 2997 ft 132 kts 177°
2026-05-04 07:10 45.83606 5.07950 2822 ft 132 kts 177°
2026-05-04 07:12 45.77056 5.08749 1526 ft 141 kts 174°
2026-05-04 07:12 45.76088 5.08879 1311 ft 140 kts 171°
2026-05-04 07:12 45.75107 5.09010 1058 ft 144 kts 173°
2026-05-04 07:12 45.74113 5.09102 919 ft 143 kts 173°
2026-05-04 07:13 45.73120 5.09236 809 ft 141 kts 172°
2026-05-04 07:13 45.72257 5.09346 821 ft 100 kts 176°
2026-05-04 07:13 45.71735 5.09405 829 ft 45 kts 174°
2026-05-04 07:14 45.71153 5.09473 829 ft 10 kts 191°
2026-05-04 07:14 45.71112 5.09398 829 ft 10 kts 246°
2026-05-04 07:15 45.71103 5.09315 831 ft 7 kts 262°
2026-05-04 07:15 45.71096 5.09236 830 ft 11 kts 264°
2026-05-04 07:15 45.71084 5.09051 827 ft 26 kts 265°
2026-05-04 07:15 45.71083 5.08838 826 ft 21 kts 282°
2026-05-04 07:16 45.71121 5.08634 821 ft 21 kts 293°
2026-05-04 07:16 45.71248 5.08549 819 ft 21 kts 355°
2026-05-04 07:16 45.71316 5.08541 819 ft 4 kts 355°
2026-05-04 07:16 45.71370 5.08534 816 ft 10 kts 355°
2026-05-04 07:17 45.71415 5.08463 813 ft 12 kts 281°
2026-05-04 07:17 45.71407 5.08319 809 ft 17 kts 271°
2026-05-04 07:17 45.71435 5.08156 808 ft 17 kts 285°
2026-05-04 07:17 45.71455 5.08004 805 ft 3 kts 271°
2026-05-04 07:18 45.71455 5.07966 804 ft 8 kts 272°
2026-05-04 07:18 45.71479 5.07935 803 ft 3 kts 337°
2026-05-04 07:18 45.71504 5.07920 802 ft 4 kts 334°
2026-05-04 07:18 45.71532 5.07899 802 ft 3 kts 333°
2026-05-04 07:19 45.71541 5.07892 802 ft 0 kts 333°
2026-05-04 07:19 45.71542 5.07891 802 ft 0 kts 333°